Location: LewisvilleTX
(33.0462°N, 96.9942°W)
Time: 06:45:55
(UTC+00:00)

Tiangong - Visible Passes

Search period start: 30 November 2022 00:00
Search period end: 10 December 2022 00:00
Orbit: 385 x 393 km, 41.5° (Epoch: 29 November)

Date Brightness Start Highest point End Pass type
(mag) Time Alt. Az. Time Alt. Az. Time Alt. Az.
30 Nov -2.1 00:06:34 10° WSW 00:09:44 78° SSE 00:12:05 17° ENE visible
30 Nov 1.3 01:44:14 10° WNW 01:44:24 11° WNW 01:44:24 11° WNW visible
01 Dec -1.0 00:45:42 10° W 00:48:38 33° NNW 00:49:05 31° N visible
01 Dec -1.6 23:47:16 10° WSW 23:50:23 52° NNW 23:53:30 10° NE visible
02 Dec 0.8 01:25:22 10° NW 01:26:01 13° NW 01:26:01 13° NW visible
03 Dec -0.4 00:26:44 10° WNW 00:29:20 23° NNW 00:30:34 18° NNE visible
04 Dec 0.4 01:06:14 10° NW 01:07:23 15° NNW 01:07:23 15° NNW visible
05 Dec -0.2 00:07:35 10° NW 00:09:56 19° N 00:11:51 12° NE visible
06 Dec -0.1 00:46:42 10° NW 00:48:37 18° N 00:48:37 18° N visible
06 Dec -0.1 23:48:10 10° NW 23:50:24 17° N 23:52:37 10° NE visible
07 Dec 0.9 01:25:07 10° NW 01:25:23 12° NW 01:25:23 12° NW visible
08 Dec -0.6 00:26:48 10° NW 00:29:21 22° NNE 00:29:53 21° NNE visible
09 Dec -0.4 01:05:01 10° NW 01:06:45 27° NW 01:06:45 27° NW visible
